Skip Page Navigation
NASA JPL Caltech
NASA Logo - Jet Propulsion Laboratory + View the NASA Portal
+ Center for Near-Earth Object Studies
JPL Home Earth Solar System Stars & Galaxies Technology
JPL Solar System Dynamics
BODIES ORBITS EPHEMERIDES TOOLS PHYSICAL DATA DISCOVERY FAQ SITE MAP
JPL Small-Body Database Browser
Search: [ help ]  
277865 (2006 JX27)
Classification: Main-belt Asteroid          SPK-ID: 2277865
Ephemeris | Orbit Diagram | Orbital Elements | Mission Design | Physical Parameters | Discovery Circumstances ]

[ show orbit diagram ]
Orbital Elements at Epoch 2459000.5 (2020-May-31.0) TDB
Reference: JPL 18 (heliocentric ecliptic J2000)
 Element Value Uncertainty (1-sigma)   Units 
e .1098384102957909 9.6087e-08  
a 2.981094538776198 3.6033e-08 au
q 2.653655853695556 2.7972e-07 au
i 9.432227911441885 6.4239e-06 deg
node 58.09903037581899 3.4349e-05 deg
peri 291.7740535155522 4.51e-05 deg
M 146.8225837136798 3.2783e-05 deg
tp 2458233.752423758550
(2018-Apr-25.25242376)
0.00016885 TDB
period 1880.018185657387
5.15
3.4086e-05
9.332e-08
d
yr
n .1914875094009363 3.4718e-09 deg/d
Q 3.308533223856839 3.9991e-08 au
  Orbit Determination Parameters
   # obs. used (total)      203  
   data-arc span      5430 days (14.87 yr)  
   first obs. used      2005-03-16  
   last obs. used      2020-01-27  
   planetary ephem.      DE431  
   SB-pert. ephem.      SB431-N16  
   condition code      0  
   norm. resid. RMS      .50363  
   source      ORB  
   producer      Otto Matic  
   solution date      2020-Feb-25 14:15:23  

Additional Information
 Earth MOID = 1.66673 au 
 Jupiter MOID = 2.16208 au 
 T_jup = 3.230 
[ hide covariance matrix ]
Orbital Elements at Epoch 2457485.5 (2016-Apr-07.0) TDB
Reference: JPL 18 (heliocentric ecliptic J2000)
 Element Value Uncertainty (1-sigma)   Units 
e .1085033505453787 9.5803e-08  
q 2.658622568060101 2.7743e-07 au
tp 2458232.625243775311
(2018-Apr-24.12524378)
0.00017107 TDB
node 58.11883203172435 3.4359e-05 deg
peri 291.4511469648912 4.5354e-05 deg
i 9.429702265556401 6.4216e-06 deg
  Orbit Determination Parameters
   # obs. used (total)      203  
   data-arc span      5430 days (14.87 yr)  
   first obs. used      2005-03-16  
   last obs. used      2020-01-27  
   planetary ephem.      DE431  
   SB-pert. ephem.      SB431-N16  
   condition code      0  
   norm. resid. RMS      .50363  
   source      ORB  
   producer      Otto Matic  
   solution date      2020-Feb-25 14:15:23  

Additional Information
 Jupiter MOID = 2.16208 au 
 T_jup = 3.230 
Orbit Covariance (6×6)
  e q tp node peri i
e 9.178132067423757E-15 -2.641210969356069E-14 8.196929042177511E-12 -4.477847825067409E-14 9.275471730721229E-13 1.293044252445382E-14
q -2.641210969356069E-14 7.69653630190476E-14 -2.363845362228983E-11 1.29412458463468E-13 -2.755652475796662E-12 -3.524265300362959E-14
tp 8.196929042177511E-12 -2.363845362228983E-11 2.92664092929552E-8 -1.974961593799283E-11 4.997007098777744E-9 -9.91179724136817E-12
node -4.477847825067409E-14 1.29412458463468E-13 -1.974961593799283E-11 1.180524223851719E-9 -1.164229724069743E-9 -1.513807256678E-11
peri 9.275471730721229E-13 -2.755652475796662E-12 4.997007098777744E-9 -1.164229724069743E-9 2.05699578358979E-9 1.209138274601615E-11
i 1.293044252445382E-14 -3.524265300362959E-14 -9.91179724136817E-12 -1.513807256678E-11 1.209138274601615E-11 4.123687947573965E-11

Ephemeris | Orbit Diagram | Orbital Elements | Mission Design | Physical Parameters | Discovery Circumstances ]

Physical Parameter Table
Parameter Symbol Value Units Sigma Reference Notes
absolute magnitude H 15.9   n/a MPO455061  

277865 (2006 JX27)          Discovered 2006-May-02 by Mt. Lemmon Survey at Mount Lemmon
Reference: 20110517/Numbers.arcLast Updated: 2011-05-20

Alternate Designations
 2006 JX27 = 2005 FM14 = 2008 UT353 
Ephemeris | Orbit Diagram | Orbital Elements | Mission Design | Physical Parameters | Discovery Circumstances ]
ABOUT SSD CREDITS/AWARDS PRIVACY/COPYRIGHT GLOSSARY LINKS
FirstGov 2020-Aug-12 13:21 UT
(server date/time)  
NASA Home Page
Site Manager:   Ryan S. Park
Webmaster  Alan B. Chamberlin